Location: Little Chesterford
(52.0500°N, 0.1833°E)
Time: 16:11:53
(UTC+00:00)

COSMOS 2455 - Pass Details

Date: 26 September 2023
Orbit: 902 x 907 km, 67.1° (Epoch: 08 December)

Event Time Altitude Azimuth Distance (km) Brightness Sun altitude
Rises 20:33:15 0° 318° (NW) 3,543 7.2 -24.8°
Reaches altitude 10° 20:35:57 10° 310° (NW) 2,598 6.3 -25.2°
Maximum altitude 20:41:20 35° 247° (WSW) 1,429 4.1 -25.9°
Enters shadow 20:44:05 23° 201° (SSW) 1,812 4.2 -26.2°
